MTG-S1

Last updated on Mon Oct 20 2025 00:02:51 GMT+0000 (Coordinated Universal Time)

1 64723U 25143A 25292.26662388 -.00000035 00000+0 00000+0 0 9995 2 64723 0.8164 311.6177 0001876 292.8634 236.0845 1.00272306 1005
UTC large
Height (km)
Speed (km/s)
/
Latitude / Longitude
Inclination (degrees)
Orbital Period (minutes)
Azimuth
Elevation
Range (km)
Doppler Factor

Next 0 passes for location: London (51.5072 / 0.1276)

Sorry there are no passes over London.